GFSGBSN_con_3kmhel_276.txt.gz
Helicity
66 52 75 60 60 61 63 65 69 67 73 67 57 55 68 67 75 89 75 73 72 85 77 83 74 64 16 74 67 62 91 51 27 72 91 40 137 83 90 86 116 116 127 63 109 1 38
69 70 77 58 59 69 63 63 69 63 74 67 64 59 66 66 65 101 89 92 85 76 114 113 114 59 27 83 104 103 73 24 22 28 85 107 40 48 92 93 115 90 123 163 170 155 125
70 70 71 55 54 65 62 64 57 61 68 58 59 67 86 103 101 104 107 118 117 88 117 130 97 80 186 48 108 96 37 3 -11 5 55 68 47 51 50 84 83 127 149 157 155 145 92
72 69 65 55 60 59 56 57 50 61 66 64 60 72 91 111 118 136 145 135 127 105 141 102 59 44 44 80 73 87 103 98 96 39 40 48 29 100 53 55 130 83 103 97 70 119 108
63 61 67 57 52 64 55 43 63 68 68 69 74 82 88 107 122 137 141 133 97 144 71 88 31 33 44 91 88 77 54 22 28 68 123 43 48 57 65 55 62 88 43 34 52 25 25
60 68 64 65 45 53 57 50 61 64 61 66 70 79 99 124 145 140 122 102 129 108 91 60 23 46 64 60 82 70 87 67 23 2 18 52 35 45 91 75 62 40 33 31 23 18 50
66 71 55 50 70 43 48 51 62 69 63 66 75 98 107 157 165 139 102 100 121 124 207 71 51 62 18 10 57 84 24 86 85 95 49 124 106 60 38 8 -1 7 1 -2 -14 0 -11
75 65 55 60 57 48 47 59 69 68 72 79 92 98 122 170 151 108 100 89 69 55 142 173 87 67 39 40 68 168 93 51 79 142 20 50 106 -18 -12 20 36 34 15 7 -4 20 38
76 69 69 61 46 41 50 63 72 67 73 84 100 108 122 136 112 183 127 109 94 57 71 105 100 60 33 34 88 99 42 15 46 122 119 55 1 38 21 56 49 2 13 4 2 34 56
71 85 68 55 43 48 54 59 66 70 74 93 108 123 117 85 138 125 135 139 104 42 46 48 53 34 24 25 75 46 25 31 32 17 21 48 -12 20 28 21 4 3 22 17 23 67 13
114 97 64 64 50 55 61 61 63 75 77 95 113 128 128 81 58 140 103 109 65 61 40 34 82 36 46 55 38 74 24 54 47 23 13 -10 29 29 30 -2 13 -8 -8 34 55 80 110
132 94 76 63 62 63 68 70 73 86 91 104 123 108 110 127 135 120 126 86 74 51 35 61 66 70 81 90 64 44 49 53 12 83 82 20 9 20 -1 -5 29 4 6 45 81 89 85
117 92 84 65 65 64 69 74 85 97 104 115 137 111 102 107 101 124 116 120 81 75 55 71 91 87 85 84 86 72 77 90 58 58 44 20 33 9 2 25 31 66 35 21 62 63 60
114 88 86 70 60 66 68 76 89 108 119 123 126 107 142 147 142 120 164 169 77 61 106 80 115 116 106 85 95 82 88 98 94 86 70 60 37 42 10 8 -3 -12 -21 2 59 101 187
110 97 91 75 61 60 71 75 97 114 132 128 108 142 152 198 172 143 177 144 78 61 87 137 162 130 114 108 101 97 94 86 75 61 88 79 65 50 59 27 27 13 49 37 77 112 141
106 103 87 78 69 60 74 81 102 122 148 128 139 155 177 218 167 169 194 135 120 99 123 158 138 111 100 106 123 106 80 60 63 61 57 55 107 72 49 56 59 51 28 59 78 109 114
104 101 81 79 77 71 76 89 106 126 148 128 161 180 151 187 170 217 163 129 111 130 136 148 136 136 115 123 121 100 91 79 62 74 76 72 106 86 76 88 67 56 67 103 90 115 129
115 103 74 88 78 78 79 92 107 127 135 167 165 180 167 154 235 206 148 115 115 159 165 150 141 138 129 145 143 121 111 94 88 92 89 81 103 106 88 63 84 82 89 116 103 66 147
116 110 97 87 81 81 84 94 103 126 140 158 201 169 162 152 182 222 176 168 143 160 146 137 136 129 136 155 149 140 138 119 117 111 96 65 107 117 112 117 105 112 141 178 188 163 158
132 115 101 90 80 78 81 88 98 126 144 172 176 167 194 186 170 159 191 154 173 171 170 151 143 157 172 166 158 144 150 135 127 104 90 121 131 140 124 108 157 141 153 205 249 212 187
125 102 87 82 80 84 84 90 107 137 149 177 199 137 147 145 166 147 167 136 180 156 151 150 140 123 142 152 162 164 184 165 139 138 151 136 117 150 114 123 173 127 133 222 272 234 255
114 102 87 91 93 87 84 83 107 141 157 181 157 118 170 142 150 193 170 124 159 154 120 121 125 107 122 132 121 109 170 146 134 143 153 157 143 128 109 108 167 157 74 118 199 192 198
99 94 98 100 101 89 77 90 111 137 166 164 135 126 122 143 152 166 130 115 114 147 114 97 98 135 119 95 107 114 115 122 130 151 155 178 176 168 123 134 132 151 115 139 168 242 217
97 98 99 104 85 93 87 95 112 130 149 125 115 104 99 126 129 123 113 139 119 112 120 105 115 119 90 131 122 115 121 109 124 120 176 207 213 188 172 158 196 101 124 157 149 143 153
96 92 95 98 99 91 88 97 108 125 114 115 107 103 86 122 124 147 124 158 188 172 168 152 137 110 110 123 137 131 109 123 102 119 140 224 267 200 201 221 135 75 143 193 225 133 130
92 97 100 100 101 92 86 90 96 119 110 134 134 101 87 94 89 134 155 136 166 184 175 154 166 154 138 125 138 149 129 112 149 136 137 174 223 219 274 274 187 107 91 157 192 88 68
90 93 90 95 101 85 80 80 89 112 112 108 128 105 90 104 91 131 154 131 138 167 159 152 133 135 126 145 161 155 135 134 145 164 176 241 202 228 309 304 214 55 66 175 203 139 133
81 86 95 93 87 77 72 72 76 99 109 108 115 135 83 99 79 106 116 111 159 164 155 89 153 128 161 172 153 123 141 131 143 115 143 151 181 252 312 357 226 97 121 214 143 153 138
79 95 91 81 79 68 65 68 68 84 96 108 113 118 110 100 70 76 80 99 126 122 140 143 131 107 106 167 119 147 161 166 155 158 132 174 240 226 272 213 178 166 170 160 166 149 124

GFSGBSN_con_3kmhel_279.txt.gz
Helicity
74 84 63 68 73 57 58 61 65 59 63 71 68 78 70 52 45 33 18 48 79 98 100 82 80 67 53 95 116 151 166 128 71 87 70 38 116 64 51 85 157 87 68 115 14 150 139
83 76 68 70 72 61 63 71 72 63 67 73 78 86 60 53 42 30 30 56 87 113 111 93 74 20 41 128 116 123 102 49 71 76 118 89 71 84 128 112 106 80 165 189 131 64 177
81 90 72 72 64 62 66 71 67 69 71 76 80 79 50 36 33 35 46 82 115 140 145 73 54 55 182 74 102 67 47 29 33 63 98 136 42 33 86 138 126 90 119 183 245 142 134
87 83 72 64 67 72 68 64 66 68 73 73 73 74 57 38 40 41 58 91 111 115 115 77 46 44 38 49 59 148 68 78 91 62 46 114 39 97 87 76 103 114 88 65 116 206 145
83 71 71 66 65 65 59 58 68 75 71 77 78 75 64 53 44 36 61 91 109 98 80 46 55 24 -17 103 104 72 36 -16 13 23 90 28 180 85 18 48 58 86 58 69 58 111 85
68 61 70 70 61 73 63 59 60 70 72 81 79 74 69 62 59 66 86 115 130 90 103 62 39 -7 71 91 98 87 14 35 24 6 -7 59 53 125 139 8 43 43 52 53 56 62 52
62 56 69 69 60 62 55 57 63 78 80 83 80 72 81 67 73 60 89 115 126 154 234 78 47 42 25 65 73 162 40 92 73 34 30 105 96 108 63 35 8 19 10 -1 -48 0 -4
79 71 69 62 54 54 54 61 69 72 76 82 75 68 78 77 68 89 81 97 84 69 171 107 63 46 46 33 67 173 84 27 83 46 8 54 133 21 29 32 40 28 -3 17 -38 1 -17
70 77 68 54 55 47 52 55 65 67 76 87 77 69 68 67 83 105 125 116 115 69 89 96 72 49 29 46 80 131 36 25 104 189 160 94 15 22 31 61 36 27 26 10 7 1 24
58 73 66 71 59 47 40 52 60 62 75 87 85 79 55 38 93 106 133 105 73 55 27 44 72 56 52 36 59 73 46 18 40 34 46 67 16 49 48 41 20 1 17 6 14 5 15
68 77 88 79 67 62 55 58 65 64 70 77 84 82 78 40 43 101 69 73 51 52 -2 28 86 49 62 72 40 84 32 141 64 20 7 24 52 60 62 40 30 15 -14 2 8 12 -6
83 109 93 84 93 71 59 60 63 63 82 88 100 98 91 81 94 94 84 59 73 54 2 39 56 78 89 104 78 53 71 75 39 141 129 47 18 41 32 0 5 -3 14 30 45 -1 0
120 111 99 109 88 63 64 64 66 58 80 89 93 93 78 73 77 85 88 101 80 48 30 39 53 85 88 75 82 83 102 98 67 69 66 60 68 15 32 11 8 51 7 21 20 -1 20
133 121 114 105 89 71 77 70 62 71 85 91 91 106 130 113 125 80 125 149 78 50 68 50 73 112 84 69 80 76 74 78 94 77 68 74 73 63 45 45 23 33 10 20 54 59 50
140 120 114 101 90 81 81 74 64 82 96 73 96 144 145 169 132 106 153 137 59 37 63 102 131 100 88 87 83 84 89 91 83 75 90 80 94 73 58 40 5 26 32 1 39 60 -2
125 114 110 104 93 91 78 77 72 92 91 71 117 138 163 184 129 143 175 140 122 88 105 143 106 75 80 85 95 92 77 57 85 77 61 71 110 90 53 27 85 68 27 31 44 65 41
118 114 107 103 99 97 81 79 83 97 86 86 132 155 146 162 138 200 157 153 135 112 113 110 105 122 101 98 95 94 89 74 72 90 85 72 99 103 73 80 83 70 62 84 79 74 72
115 123 112 97 99 95 87 84 91 100 88 133 143 156 162 164 250 213 147 141 145 150 141 124 123 120 121 117 110 99 90 97 71 79 96 82 104 123 113 82 85 106 97 96 85 79 97
122 119 108 94 95 97 94 90 92 101 76 134 186 164 162 154 182 238 209 203 176 163 143 135 132 117 115 130 119 120 108 81 96 103 94 62 111 121 116 114 115 109 131 165 171 149 113
122 116 99 94 92 98 92 105 97 97 78 143 167 184 200 165 164 182 204 173 195 190 187 153 143 141 151 153 137 128 131 111 109 110 112 104 110 112 128 141 152 144 145 192 232 212 187
129 130 114 106 94 96 93 103 97 105 94 147 202 160 155 147 157 163 197 164 205 168 142 138 133 103 137 151 168 149 152 167 171 172 145 112 111 124 88 92 142 117 169 232 280 281 246
132 119 101 95 91 92 88 93 98 110 116 157 169 143 177 158 174 198 187 150 167 149 116 105 106 111 126 132 120 100 171 150 149 135 151 148 151 131 110 99 98 80 83 170 175 173 195
123 111 96 97 94 97 95 93 95 124 147 161 142 139 149 174 167 183 133 130 103 129 128 83 121 134 142 110 116 111 129 139 123 133 150 171 169 162 144 113 94 105 54 59 103 192 221
134 112 109 101 96 93 96 93 104 122 149 141 131 133 141 154 149 141 123 152 117 118 111 121 133 151 95 132 142 158 149 145 137 140 186 227 224 186 180 153 160 106 107 105 70 122 168
112 113 110 106 100 101 97 93 111 117 126 125 126 118 125 157 143 162 146 175 215 204 175 164 163 113 82 135 152 158 139 143 119 125 176 209 243 217 194 197 116 105 113 155 158 74 108
117 118 109 108 100 95 92 96 119 100 99 130 142 115 107 123 87 140 165 134 171 174 192 194 172 143 131 151 160 163 141 132 149 159 153 148 170 183 255 227 192 161 157 142 132 99 70
122 115 94 94 95 88 98 98 113 105 101 124 135 124 105 111 124 152 131 132 123 162 180 164 144 143 132 167 161 148 148 143 143 135 117 187 175 198 229 239 185 59 108 166 195 158 145
118 109 103 102 98 99 95 97 120 113 110 122 131 132 95 97 118 116 111 113 144 150 165 112 182 151 166 167 132 126 142 127 118 128 125 159 194 210 227 251 177 89 131 220 198 157 157
101 111 117 106 103 101 93 96 110 107 103 119 129 141 124 107 88 102 123 144 114 107 132 137 145 119 112 157 137 154 143 123 120 127 140 161 193 203 188 178 142 169 137 143 160 146 153

GFSGBSN_con_3kmhel_282.txt.gz
Helicity
79 28 8 47 51 56 54 54 57 70 71 63 61 73 65 78 77 59 31 28 20 28 43 61 69 61 40 91 111 146 137 109 88 80 81 49 58 51 49 90 83 56 87 146 121 119 97
87 74 -5 38 51 54 60 59 54 68 71 62 61 74 69 87 79 56 48 37 32 74 80 90 87 42 70 136 127 91 48 60 104 82 117 97 73 87 110 78 75 112 140 149 135 142 138
81 74 -10 35 45 53 64 55 56 76 81 69 67 77 74 80 74 42 33 15 47 86 105 80 86 90 200 83 91 46 15 38 60 94 120 119 49 27 59 84 73 69 49 104 164 82 96
94 65 -42 24 49 62 66 59 64 78 79 69 76 84 89 97 97 45 10 4 12 64 78 52 38 82 52 55 57 48 28 17 40 45 74 90 69 126 66 64 59 31 31 24 77 101 77
114 64 -49 28 58 68 64 62 67 88 90 75 75 84 86 93 92 31 10 -0 10 58 55 16 26 20 -5 44 77 35 50 28 26 49 85 32 62 81 27 29 29 35 50 77 59 108 53
119 37 -25 34 62 62 64 67 67 81 86 82 88 86 85 88 63 13 -15 -7 -3 61 76 28 17 -8 20 48 31 27 13 -2 18 7 10 57 61 55 28 -23 22 33 59 79 72 65 67
115 5 2 48 61 61 63 68 74 90 94 95 99 101 99 106 66 -0 23 43 21 61 189 69 60 86 13 12 41 41 5 -10 -26 7 49 136 114 120 103 103 84 69 68 64 54 43 18
137 32 47 53 55 51 55 66 80 97 103 109 102 102 109 120 79 27 -4 11 30 77 195 131 99 116 66 14 40 89 19 10 7 42 40 57 163 87 60 52 51 38 47 55 37 40 5
128 54 71 51 56 47 51 58 68 78 84 101 102 101 119 116 75 2 -8 23 99 97 86 112 83 80 67 68 79 105 36 28 120 143 100 94 36 19 39 33 42 76 65 48 47 33 36
117 88 74 57 50 47 56 67 83 84 87 92 87 90 104 104 63 11 32 53 58 72 55 67 64 59 58 33 62 86 40 6 23 48 65 86 45 36 40 66 3 39 27 10 10 -25 48
127 95 74 63 58 58 63 70 83 84 94 97 94 97 96 118 40 28 19 33 42 42 16 45 82 58 67 55 36 74 58 99 77 46 13 62 79 82 70 53 34 50 8 17 16 38 7
157 96 71 79 63 55 65 78 87 95 100 102 100 99 77 62 70 24 45 42 60 76 29 45 48 67 85 103 78 63 79 84 48 147 152 84 40 83 61 21 43 12 4 25 38 25 33
148 119 100 90 63 67 64 75 78 89 105 113 89 111 109 99 56 54 49 68 107 85 47 38 37 43 79 82 92 80 85 82 57 72 69 76 95 57 58 32 31 28 -0 49 61 53 115
158 142 119 86 75 74 69 79 87 93 107 101 98 114 132 96 101 77 78 114 111 85 72 40 44 55 59 60 67 67 65 83 89 70 92 78 83 81 56 54 47 83 56 77 83 84 110
191 134 118 91 79 72 75 82 95 91 107 84 92 134 143 165 132 106 112 124 95 76 95 78 72 58 63 63 64 67 85 88 85 76 83 99 120 78 88 72 17 70 82 57 83 98 80
171 129 121 96 78 76 81 90 101 87 99 79 117 137 153 170 142 117 136 127 105 108 96 77 86 51 70 77 78 67 82 75 93 85 64 91 131 94 84 49 95 81 67 54 76 99 70
176 150 122 101 84 88 90 102 106 99 96 105 157 177 136 153 155 163 141 134 108 94 96 91 101 115 103 110 95 104 108 91 83 92 70 71 82 100 66 60 74 69 71 80 84 89 112
216 155 126 106 91 90 99 113 109 111 104 158 194 206 152 190 241 185 153 123 119 106 117 113 124 134 119 110 128 119 109 109 71 68 90 76 106 126 126 90 74 82 88 95 102 115 99
260 222 112 111 100 97 106 112 107 112 91 189 255 202 179 248 194 205 176 156 148 135 115 133 135 122 113 123 133 121 115 94 83 72 81 59 111 159 131 111 97 86 135 156 145 125 94
224 207 104 112 102 93 104 115 115 106 110 202 218 237 228 195 176 164 169 136 154 169 172 155 152 138 140 132 114 108 125 105 82 85 105 75 113 134 165 188 156 131 149 159 185 175 140
179 128 111 113 95 95 110 123 128 106 106 194 241 209 203 148 159 150 146 109 141 161 143 123 141 101 115 149 137 130 126 142 116 123 114 93 118 112 84 82 88 70 138 165 248 175 196
224 127 121 121 109 110 122 139 131 111 117 198 183 172 217 148 121 131 166 108 113 148 111 103 92 101 97 115 104 101 142 116 115 99 119 111 119 106 93 92 81 62 52 118 129 84 124
206 99 116 117 112 114 117 120 111 110 154 160 152 154 188 160 158 148 129 119 89 125 148 107 105 119 117 130 134 130 115 111 104 119 136 136 137 132 133 112 71 72 30 11 39 96 99
138 118 125 121 117 118 117 112 105 112 181 149 143 154 172 165 112 105 101 104 106 135 132 138 127 129 137 153 157 169 178 146 130 151 116 133 159 148 143 116 119 154 142 96 81 52 80
120 113 118 112 111 112 115 112 113 115 139 136 136 150 145 161 116 131 110 169 203 199 196 174 180 143 112 134 171 161 123 138 132 120 120 119 148 131 147 142 67 75 116 60 74 51 106
103 109 112 116 112 116 117 111 103 105 108 127 153 145 120 146 107 113 140 104 190 199 211 196 188 154 169 162 165 139 122 172 124 114 82 106 85 131 173 160 122 217 150 130 110 84 124
96 107 100 105 110 112 115 101 93 94 102 136 134 137 128 134 150 136 165 138 146 181 203 186 166 161 138 165 162 146 149 146 127 127 124 156 126 121 134 173 110 100 155 113 137 191 179
112 118 127 122 122 123 112 107 102 103 92 158 146 146 122 118 177 175 148 137 141 120 155 133 200 148 162 177 133 148 135 129 131 118 115 139 151 165 160 170 127 121 140 167 239 194 191
113 113 117 114 113 110 114 121 108 107 89 127 154 135 143 150 155 157 155 162 154 124 117 132 140 134 121 153 151 145 135 120 105 104 111 148 150 177 152 146 191 156 117 161 165 137 112

GFSGBSN_con_3kmhel_288.txt.gz
Helicity
166 132 111 73 62 31 7 6 31 39 51 68 79 89 86 81 70 75 57 50 53 63 77 69 84 83 26 -22 22 69 108 128 52 91 49 6 3 44 44 93 142 127 148 141 123 129 145
176 164 127 85 56 26 -5 13 45 52 61 72 82 97 93 81 70 79 65 66 61 75 101 135 219 174 20 -14 64 58 53 62 140 52 114 94 22 8 23 21 39 68 58 52 74 73 83
235 166 124 102 85 68 41 66 64 66 69 79 87 100 98 86 74 77 83 81 68 84 125 165 153 60 99 -11 16 83 21 63 58 128 -24 30 7 -3 53 51 41 65 86 84 60 48 44
218 160 117 107 94 61 45 52 72 74 74 83 87 106 100 93 76 77 90 86 67 90 113 151 92 34 -7 39 58 66 39 48 37 9 28 70 -12 3 -11 12 3 -5 8 15 53 24 41
193 150 130 114 110 76 46 63 74 82 79 84 90 114 102 92 80 68 87 88 83 86 107 163 119 10 -20 24 16 23 46 54 57 12 14 28 5 -15 3 -2 -14 42 6 45 2 18 43
158 154 148 129 114 84 39 65 80 90 84 88 94 112 104 85 75 62 72 69 89 107 108 127 32 14 9 25 46 21 64 114 62 19 41 34 1 10 -6 22 3 44 69 65 74 27 78
157 130 140 134 109 69 53 54 81 90 85 92 98 112 106 88 73 45 29 86 71 82 141 41 37 87 47 29 71 44 77 64 26 23 15 42 58 49 3 24 61 64 101 88 63 38 72
160 81 145 134 98 68 47 45 82 88 89 102 104 108 100 96 80 52 180 253 123 51 75 37 50 74 52 55 61 209 27 35 12 43 35 78 104 32 18 39 61 65 82 84 59 40 20
146 80 145 123 86 81 49 47 79 80 92 97 105 111 106 109 99 90 196 156 196 157 68 65 52 66 58 75 90 124 199 67 51 71 90 75 45 35 47 83 83 131 154 87 98 44 33
280 100 136 121 94 52 59 74 81 71 88 97 104 115 104 108 107 81 105 62 50 69 102 52 33 30 49 39 74 69 41 49 48 78 73 77 33 55 74 86 76 71 58 45 42 40 99
362 284 114 121 107 51 81 88 65 71 89 102 106 119 101 98 117 71 40 35 80 89 94 30 29 38 40 57 38 65 75 37 40 49 32 74 88 59 83 77 72 82 53 55 54 60 78
405 295 149 74 90 95 91 76 58 83 101 104 113 124 127 173 188 78 23 58 118 133 81 42 59 28 53 61 60 47 71 98 95 156 147 93 63 87 58 57 69 61 53 54 58 59 83
438 314 130 117 118 95 112 78 75 98 115 111 122 132 144 145 77 48 59 144 167 111 29 46 46 26 58 74 76 50 62 77 72 100 97 102 100 85 75 55 54 52 63 64 57 78 95
439 407 238 177 165 136 123 88 98 112 118 115 124 152 232 103 80 78 156 205 143 69 35 26 50 26 55 87 92 76 76 115 90 71 80 92 92 87 85 119 102 87 80 99 79 109 191
461 434 321 237 201 123 107 95 109 117 115 106 161 163 124 122 150 183 236 159 104 65 84 59 42 52 77 58 73 56 55 91 106 133 115 129 128 96 112 116 89 94 105 88 107 105 139
431 425 285 266 212 171 103 111 114 118 108 90 189 133 74 109 181 244 219 141 123 183 71 52 76 28 64 56 81 81 82 70 100 106 143 129 149 81 97 75 110 121 98 120 138 171 149
397 391 378 328 245 169 125 122 116 116 77 125 194 154 86 142 213 248 142 148 135 99 70 59 96 61 66 96 74 78 87 81 89 114 114 137 122 122 91 101 127 101 129 142 115 120 129
461 420 409 297 209 131 125 112 113 119 129 210 223 165 169 193 269 187 138 143 128 113 197 138 117 93 92 101 127 170 98 85 93 95 136 115 131 139 164 133 117 118 138 111 132 124 116
412 393 379 257 217 103 117 110 116 149 96 268 250 182 235 337 221 188 160 132 120 136 128 125 114 104 126 113 210 177 204 105 102 124 95 76 135 190 141 104 99 133 137 122 150 134 99
354 348 328 257 121 113 113 105 120 93 108 374 239 287 289 245 202 130 162 141 158 99 142 129 122 116 107 180 165 152 149 116 113 135 129 98 116 142 192 173 159 145 103 123 175 156 119
316 365 329 275 182 121 118 103 116 92 195 342 248 213 263 205 205 146 131 71 133 203 181 150 131 93 126 206 187 180 121 144 120 102 105 107 134 136 101 93 115 106 104 124 186 141 146
358 325 251 239 126 129 112 107 113 127 242 322 227 221 228 73 202 138 119 115 93 134 132 105 122 89 117 144 139 154 148 111 112 107 104 118 134 116 117 81 85 61 52 135 156 106 68
375 249 299 255 87 136 130 142 128 160 258 297 239 202 193 108 97 134 121 133 87 104 112 92 85 115 176 173 207 157 92 89 103 92 108 123 164 153 185 163 119 63 40 22 10 57 126
322 282 266 260 125 132 139 144 131 149 231 282 241 179 180 145 119 140 121 113 92 157 138 134 112 187 319 301 296 304 195 151 95 82 91 147 156 164 154 130 119 135 69 113 133 98 53
308 272 229 217 156 129 152 146 129 148 234 299 300 197 193 181 117 122 119 105 144 211 135 219 335 264 134 207 285 240 214 185 135 106 94 120 169 151 166 124 66 75 173 99 74 53 61
285 266 229 196 136 131 157 157 159 155 231 288 220 223 197 207 152 83 98 140 307 331 330 318 256 153 142 215 209 186 190 184 137 124 102 117 129 144 161 138 93 133 138 126 91 71 192
288 235 258 233 109 134 159 157 165 196 247 243 199 231 186 213 339 314 172 253 272 302 297 284 337 292 213 198 202 165 187 108 155 162 161 175 184 113 129 124 92 72 216 100 74 200 172
273 233 294 195 112 143 154 155 165 198 209 230 209 249 175 190 360 414 379 212 139 208 248 162 271 204 191 172 159 181 165 126 131 109 153 170 160 166 138 146 59 129 91 102 214 174 180
243 258 211 103 132 135 142 143 152 174 143 194 201 211 176 213 225 278 459 489 499 200 167 136 188 126 136 158 136 130 168 130 131 187 159 158 103 147 109 95 117 96 84 167 206 215 189

GFSGBSN_con_3kmhel_291.txt.gz
Helicity
159 190 145 96 74 55 42 24 21 24 51 60 72 80 88 106 85 79 63 72 75 42 60 112 98 67 14 -16 35 124 130 184 176 126 74 30 16 67 186 202 290 281 212 179 149 104 113
166 181 151 114 78 50 41 21 12 20 54 76 79 86 92 112 95 89 72 84 87 58 116 179 218 168 -21 -37 64 103 119 122 228 184 169 91 93 42 84 63 64 44 87 76 68 89 83
139 185 165 112 81 54 44 33 -0 15 49 86 99 91 91 118 99 94 80 86 94 72 116 155 132 87 79 22 67 75 81 117 123 168 140 121 57 11 73 75 -7 -5 50 21 13 3 50
145 186 195 129 90 66 68 50 -5 -23 63 103 113 101 93 122 101 97 84 89 103 97 107 120 103 68 21 79 58 20 76 108 69 146 121 52 46 55 40 3 -44 -33 -32 -1 -22 -1 4
237 168 179 145 97 96 93 71 41 19 104 112 131 112 97 124 107 91 79 81 100 93 107 140 94 63 12 52 34 23 44 80 119 80 87 58 75 -27 -55 -77 -70 -23 -11 30 -13 8 18
134 123 152 146 113 107 90 71 22 30 113 115 148 116 105 124 113 95 78 72 128 133 115 90 102 58 45 89 101 68 124 177 94 76 38 1 -3 -11 -1 9 29 19 61 45 18 53 149
134 123 129 135 123 91 77 58 41 54 89 125 153 116 119 127 117 76 88 133 122 139 198 101 44 64 5 60 106 116 169 192 69 3 42 -5 119 74 146 146 52 135 100 59 40 53 74
260 207 119 151 124 94 60 57 58 60 75 130 149 124 130 126 116 110 160 190 131 80 121 57 91 71 69 85 119 228 187 70 50 32 -19 69 129 68 67 122 225 83 102 62 49 56 103
260 164 165 83 116 100 69 66 96 75 112 126 148 134 137 135 128 161 228 181 117 132 113 134 74 34 53 66 128 271 218 99 72 123 58 50 44 42 51 145 164 243 145 95 51 26 42
252 260 311 172 97 104 82 67 75 54 99 123 138 139 145 155 149 171 175 84 79 115 86 81 84 39 63 61 113 199 173 64 40 63 87 88 47 47 71 98 120 81 60 61 47 97 82
313 293 296 218 116 117 90 66 75 82 92 110 133 140 148 158 210 117 99 37 103 100 119 31 71 44 63 91 18 123 133 63 83 66 30 50 99 69 94 74 71 70 37 56 60 87 112
378 350 336 193 136 124 103 59 63 85 83 115 132 134 146 175 155 109 83 120 117 143 94 63 92 53 73 73 66 83 94 119 76 163 137 105 53 70 71 71 74 61 60 57 61 95 112
368 327 316 213 191 200 100 83 90 86 100 118 121 127 148 253 147 120 125 179 167 126 60 56 94 73 71 78 83 38 84 132 101 123 117 109 104 81 79 63 67 68 107 124 141 130 108
426 328 320 298 250 208 99 95 115 85 107 135 117 138 194 225 160 126 183 207 151 74 78 37 72 89 109 84 103 48 77 112 132 116 86 92 68 104 80 105 82 106 111 135 146 123 124
469 408 409 335 402 369 115 104 69 110 116 120 136 225 200 190 168 187 236 163 100 80 87 81 88 95 130 138 127 101 59 87 124 119 106 102 98 80 117 94 87 104 133 89 145 100 132
430 500 456 387 426 289 245 73 80 103 113 111 213 223 177 140 168 230 222 151 136 150 94 122 141 84 118 112 109 100 95 59 89 124 129 106 131 84 93 81 121 119 105 146 134 171 142
473 578 555 416 364 243 181 117 87 101 92 129 221 200 142 119 186 235 147 174 175 149 76 64 97 65 94 121 90 106 91 67 73 117 136 135 128 117 121 110 118 132 157 146 156 179 173
586 666 483 338 369 335 208 123 104 123 101 191 235 202 172 188 263 179 137 176 181 125 134 130 164 115 106 110 113 148 94 69 79 115 141 121 144 173 142 119 133 131 128 156 189 143 152
661 535 463 391 435 406 248 160 129 115 89 303 305 221 251 272 224 229 154 200 157 159 151 151 150 182 174 126 195 220 194 83 85 138 119 113 153 200 143 108 130 166 159 171 182 161 133
732 507 505 430 397 326 258 102 129 75 64 339 312 280 334 257 215 192 198 192 173 159 125 134 111 209 188 263 216 228 211 114 161 123 152 143 168 162 148 123 138 144 143 165 207 173 131
702 487 564 431 337 249 182 183 109 110 141 336 344 251 271 203 210 173 202 176 184 188 154 166 163 157 210 256 257 202 193 209 184 128 157 145 159 166 122 131 138 125 141 177 186 160 148
696 507 596 383 333 232 159 100 155 123 225 359 271 223 259 106 223 153 203 164 166 191 169 151 124 110 194 211 173 192 209 160 142 137 152 138 155 144 133 110 107 99 126 179 157 121 95
675 688 512 332 262 215 117 170 163 136 261 387 301 253 240 143 195 213 216 212 149 157 110 107 100 184 306 173 168 146 136 84 118 146 154 149 163 164 198 241 194 129 111 127 196 163 167
633 627 437 283 237 174 142 200 125 143 274 350 329 262 249 181 126 154 173 174 111 114 127 145 113 284 284 362 437 377 320 179 104 79 143 170 174 176 173 191 225 177 109 116 101 86 107
651 503 322 296 259 169 203 191 119 136 292 398 365 276 225 170 99 134 112 166 278 370 268 244 271 267 301 407 308 296 281 226 158 59 128 134 154 177 198 181 154 190 219 229 121 148 164
573 375 313 314 274 239 189 187 151 183 289 398 327 266 229 198 239 247 161 224 374 393 399 297 301 337 337 256 250 229 191 175 149 164 157 125 113 179 197 224 193 179 162 166 128 172 231
426 336 331 277 278 215 174 186 180 227 308 326 279 269 216 204 326 285 220 275 289 387 362 370 410 372 257 249 250 213 209 170 193 187 157 200 189 180 208 227 159 150 220 150 162 179 228
387 317 299 267 282 150 202 188 199 227 269 307 304 260 190 217 399 369 370 418 340 348 347 257 398 302 241 217 200 194 222 136 188 133 130 182 207 167 225 262 155 123 153 185 221 296 244
336 337 295 286 293 156 183 190 232 221 260 313 287 285 204 240 309 370 422 484 342 245 269 287 234 165 135 200 166 199 244 204 175 169 122 143 155 154 172 152 90 127 209 243 285 308 305